Location: Champignolles
(47.0543°N, 4.5663°E)
Time: 19:37:53
(UTC+00:00)

Cosmos 44 - Pass Details

Date: 30 November 2020
Orbit: 574 x 788 km, 65.1° (Epoch: 27 January)

Event Time Altitude Azimuth Distance (km) Brightness Sun altitude
Rises 17:03:18 0° 320° (NW) 3,203 7.0 -11.3°
Reaches altitude 10° 17:05:41 10° 318° (NW) 2,299 6.3 -11.7°
Maximum altitude 17:10:55 62° 239° (WSW) 878 4.1 -12.6°
Drops below altitude 10° 17:16:16 10° 159° (SSE) 2,342 6.0 -13.4°
Sets 17:18:42 0° 156° (SSE) 3,267 6.7 -13.8°
